Weather History for Pascagoula, MS

Change the Weather History Date:

Tuesday, October 16, 2012

  Actual Average Record
Temperature  
Mean Temperature 64 °F -  
Max Temperature 80 °F 79 °F 89 °F (1968)
Min Temperature 48 °F 59 °F 38 °F (1987)
Degree Days  
Heating Degree Days 2    
Growing Degree Days 14 (Base 50)    
Moisture  
Dew Point 52 °F    
Average Humidity 72    
Maximum Humidity 100    
Minimum Humidity 30    
Precipitation  
Precipitation 0.00 in - - ()
Sea Level Pressure  
Sea Level Pressure 29.94 in    
Wind  
Wind Speed 1 mph (East)    
Max Wind Speed 7 mph    
Max Gust Speed -    
Visibility 10 miles    
Events      
Averages and records for this station are not official NWS values.
T = Trace of Precipitation, MM = Missing Value Source: NWS Daily Summary

Daily Weather History Graph

Daily Weather History Graph

Search for Another Location

Airport:

Trip Planner

Search our weather history database for the weather conditions in past years. The results will help you decide how hot, cold, wet, or windy it might be!

Date:

Astronomy

Oct. 16, 2012 Rise Set
Actual Time 6:57 AM CDT 6:21 PM CDT
Civil Twilight 6:33 AM CDT 6:45 PM CDT
Nautical Twilight 6:05 AM CDT 7:13 PM CDT
Astronomical Twilight 5:37 AM CDT 7:41 PM CDT
Moon 8:11 AM CDT (10/16) 7:15 PM CDT (10/16)
Length of Visible Light 12h 12m
Length of Day
11h 23m
New Moon, 2% of the Moon is Illuminated
Oct 16
New Moon
Oct 21
First Quarter
Oct 29
Full
Nov 6
Last Quarter
Nov 13
New

Hourly Weather History & Observations

Time (CDT) Temp. Dew Point Humidity Pressure Visibility Wind Dir Wind Speed Gust Speed Precip Events Conditions
12:53 AM 54.0 °F 53.1 °F 97% 29.98 in 10.0 mi Calm Calm - N/A   Clear
1:53 AM 53.1 °F 51.1 °F 93% 29.99 in 10.0 mi Calm Calm - N/A   Clear
2:53 AM 52.0 °F 50.0 °F 93% 29.98 in 10.0 mi Calm Calm - N/A   Clear
3:53 AM 51.1 °F 50.0 °F 96% 29.97 in 7.0 mi Calm Calm - N/A   Clear
4:53 AM 51.1 °F 48.9 °F 92% 29.96 in 8.0 mi Calm Calm - N/A   Clear
5:53 AM 50.0 °F 48.9 °F 96% 29.97 in 10.0 mi Calm Calm - N/A   Clear
7:00 AM 48.2 °F 48.2 °F 100% 29.97 in 10.0 mi Calm Calm - N/A   Clear
7:53 AM 55.9 °F 53.1 °F 90% 29.99 in 10.0 mi Calm Calm - N/A   Clear
8:53 AM 62.1 °F 53.1 °F 72% 30.00 in 10.0 mi East 5.8 mph - N/A   Clear
9:53 AM 69.1 °F 53.1 °F 57% 30.01 in 10.0 mi East 6.9 mph - N/A   Clear
10:53 AM 73.9 °F 53.1 °F 48% 30.00 in 10.0 mi Variable 5.8 mph - N/A   Clear
11:53 AM 75.9 °F 46.9 °F 36% 29.99 in 10.0 mi Variable 3.5 mph - N/A   Clear
12:53 PM 78.1 °F 45.0 °F 31% 29.96 in 10.0 mi East 6.9 mph - N/A   Clear
1:53 PM 78.1 °F 44.1 °F 30% 29.94 in 10.0 mi Calm Calm - N/A   Clear
2:53 PM 79.0 °F 46.0 °F 31% 29.91 in 10.0 mi Variable 3.5 mph - N/A   Clear
3:53 PM 77.0 °F 46.9 °F 34% 29.90 in 10.0 mi ENE 4.6 mph - N/A   Clear
4:53 PM 73.9 °F 53.1 °F 48% 29.88 in 10.0 mi SSE 4.6 mph - N/A   Clear
5:53 PM 69.1 °F 59.0 °F 70% 29.88 in 10.0 mi Calm Calm - N/A   Clear
6:53 PM 64.0 °F 59.0 °F 84% 29.88 in 10.0 mi Calm Calm - N/A   Clear
7:53 PM 63.0 °F 57.0 °F 81% 29.90 in 10.0 mi Calm Calm - N/A   Clear
8:53 PM 62.1 °F 57.0 °F 84% 29.91 in 10.0 mi Calm Calm - N/A   Clear
9:53 PM 61.0 °F 57.9 °F 90% 29.91 in 10.0 mi Calm Calm - N/A   Clear
10:53 PM 61.0 °F 57.9 °F 90% 29.90 in 10.0 mi Calm Calm - N/A   Clear
11:53 PM 61.0 °F 57.0 °F 87% 29.89 in 10.0 mi Calm Calm - N/A   Clear